Tracking 20748 objects as of 4-Jun-2020
HD Live streaming from Space Station
objects crossing your sky now
Track the most recent launched group of Starlink satellites

PSLV DEB

Track PSLV DEB now!
10-day predictions


NORAD ID: 41621
Int'l Code: 2016-040Y
Perigee: 479.6 km
Apogee: 493.3 km
Inclination: 97.3 °
Period: 94.2 minutes
Semi major axis: 6857 km
RCS: Unknown
Launch date: June 22, 2016
Source: India (IND)
Launch site: SRIHARIKOTA (SRI)

Note: This is SATELLITE DEBRIS
aabbcc
Your satellite tracking list
Your tracking list is empty




NASA's NSSDC Master Catalog

Two Line Element Set (TLE):
1 41621U 16040Y   20156.18672501 +.00003188 +00000-0 +11629-3 0  9991
2 41621 097.3356 223.0003 0009999 202.8323 157.2474 15.28840410219820
Source of the keplerian elements: AFSPC